{"data":{"norad_id":45450,"intl_designator":"2020-020AC","name":"ONEWEB-0094","alt_names":[],"object_type":"PAYLOAD","status":"ACTIVE","operator":null,"country":"UK","launch_date":"2020-03-21","launch_site_code":"TYMSC","launch_vehicle":null,"mission":null,"orbit_class":"UNKNOWN","rcs_meters":null,"size_class":null,"mass_kg":null,"dimensions":null,"purposes":["comms"],"wikipedia_slug":null,"has_3d_model":false,"image_url":null,"decayed_at":null,"tle_current":{"epoch":"2026-09-20T04:46:42.335040Z","epoch_age_seconds":40478,"freshness":"FRESH","line1":"1 45450U 20020AC  26263.19910110  .00000203  00000+0  48939-3 0  9993","line2":"2 45450  87.9207 346.9897 0001960  92.5114 267.6242 13.17646816318821","mean_motion":13.17646816,"eccentricity":0.000196,"inclination_deg":87.9207,"raan_deg":346.9897,"arg_perigee_deg":92.5114,"mean_anomaly_deg":267.6242,"bstar":0.00048939,"rev_number":31882,"period_min":109.28573442551,"perigee_km":1192.2375424666,"apogee_km":1195.2057110483,"semimajor_km":7571.8586267575,"source":"CELESTRAK","updated_at":"2026-09-20T09:00:44.557768Z"}}}